Time,TemperatureF,DewpointF,PressureIn,WindDirection,WindDirectionDegrees,WindSpeedMPH,WindSpeedGustMPH,Humidity,HourlyPrecipIn,Conditions,Clouds,dailyrainin,SoftwareType,DateUTC
2013-04-22 00:22:00,38.0,-99.9,-100.00,North,-999,-999.0,-999.0,-999,0.00,,,0.24,,2013-04-22 06:22:00,
2013-04-22 00:32:00,38.0,-99.9,-100.00,North,-999,-999.0,-999.0,-999,0.00,,,0.24,,2013-04-22 06:32:00,
2013-04-22 00:42:00,38.0,-99.9,-100.00,North,-999,-999.0,-999.0,-999,0.00,,,0.24,,2013-04-22 06:42:00,
2013-04-22 01:22:00,34.0,-99.9,-100.00,North,-999,-999.0,-999.0,-999,0.00,,,0.24,,2013-04-22 07:22:00,
2013-04-22 01:32:00,34.0,-99.9,-100.00,North,-999,-999.0,-999.0,-999,0.00,,,0.24,,2013-04-22 07:32:00,
2013-04-22 01:42:00,34.0,-99.9,-100.00,North,-999,-999.0,-999.0,-999,0.00,,,0.24,,2013-04-22 07:42:00,
2013-04-22 02:22:00,33.0,-99.9,-100.00,North,-999,-999.0,-999.0,-999,0.00,,,0.23,,2013-04-22 08:22:00,
2013-04-22 02:32:00,33.0,-99.9,-100.00,North,-999,-999.0,-999.0,-999,0.00,,,0.23,,2013-04-22 08:32:00,
2013-04-22 02:42:00,33.0,-99.9,-100.00,North,-999,-999.0,-999.0,-999,0.00,,,0.23,,2013-04-22 08:42:00,
2013-04-22 03:22:00,31.0,-99.9,-100.00,North,-999,-999.0,-999.0,-999,0.00,,,0.23,,2013-04-22 09:22:00,
2013-04-22 03:33:00,31.0,-99.9,-100.00,North,-999,-999.0,-999.0,-999,0.00,,,0.23,,2013-04-22 09:33:00,
2013-04-22 03:43:00,31.0,-99.9,-100.00,North,-999,-999.0,-999.0,-999,0.00,,,0.23,,2013-04-22 09:43:00,
2013-04-22 06:22:00,28.0,-99.9,-100.00,North,-999,-999.0,-999.0,-999,-99.99,,,0.23,,2013-04-22 12:22:00,
2013-04-22 06:32:00,28.0,-99.9,-100.00,North,-999,-999.0,-999.0,-999,-99.99,,,0.23,,2013-04-22 12:32:00,
2013-04-22 06:42:00,28.0,-99.9,-100.00,North,-999,-999.0,-999.0,-999,-99.99,,,0.23,,2013-04-22 12:42:00,
2013-04-22 08:22:00,26.0,-99.9,-100.00,North,-999,-999.0,-999.0,-999,-99.99,,,0.23,,2013-04-22 14:22:00,
2013-04-22 08:33:00,26.0,-99.9,-100.00,North,-999,-999.0,-999.0,-999,-99.99,,,0.23,,2013-04-22 14:33:00,
2013-04-22 08:42:00,26.0,-99.9,-100.00,North,-999,-999.0,-999.0,-999,-99.99,,,0.23,,2013-04-22 14:42:00,
2013-04-22 10:23:00,28.0,-99.9,-100.00,North,-999,-999.0,-999.0,-999,-99.99,,,0.24,,2013-04-22 16:23:00,
2013-04-22 10:33:00,28.0,-99.9,-100.00,North,-999,-999.0,-999.0,-999,-99.99,,,0.24,,2013-04-22 16:33:00,
2013-04-22 10:42:00,28.0,-99.9,-100.00,North,-999,-999.0,-999.0,-999,-99.99,,,0.24,,2013-04-22 16:42:00,
2013-04-22 11:22:00,28.0,-99.9,-100.00,North,-999,-999.0,-999.0,-999,0.00,,,0.23,,2013-04-22 17:22:00,
2013-04-22 11:32:00,28.0,-99.9,-100.00,North,-999,-999.0,-999.0,-999,0.00,,,0.23,,2013-04-22 17:32:00,
2013-04-22 11:43:00,28.0,-99.9,-100.00,North,-999,-999.0,-999.0,-999,0.00,,,0.23,,2013-04-22 17:43:00,
2013-04-22 12:22:00,32.0,-99.9,-100.00,North,-999,-999.0,-999.0,-999,0.00,,,0.21,,2013-04-22 18:22:00,
2013-04-22 12:32:00,32.0,-99.9,-100.00,North,-999,-999.0,-999.0,-999,0.00,,,0.21,,2013-04-22 18:32:00,
2013-04-22 12:42:00,32.0,-99.9,-100.00,North,-999,-999.0,-999.0,-999,0.00,,,0.21,,2013-04-22 18:42:00,
2013-04-22 13:22:00,31.0,-99.9,-100.00,North,-999,-999.0,-999.0,-999,0.00,,,0.21,,2013-04-22 19:22:00,
2013-04-22 13:32:00,31.0,-99.9,-100.00,North,-999,-999.0,-999.0,-999,0.00,,,0.21,,2013-04-22 19:32:00,
2013-04-22 13:42:00,31.0,-99.9,-100.00,North,-999,-999.0,-999.0,-999,0.00,,,0.21,,2013-04-22 19:42:00,
2013-04-22 14:22:00,31.0,-99.9,-100.00,North,-999,-999.0,-999.0,-999,0.00,,,0.21,,2013-04-22 20:22:00,
2013-04-22 14:32:00,31.0,-99.9,-100.00,North,-999,-999.0,-999.0,-999,0.00,,,0.21,,2013-04-22 20:32:00,
2013-04-22 14:42:00,31.0,-99.9,-100.00,North,-999,-999.0,-999.0,-999,0.00,,,0.21,,2013-04-22 20:42:00,
2013-04-22 15:22:00,31.0,-99.9,-100.00,North,-999,-999.0,-999.0,-999,0.00,,,0.10,,2013-04-22 21:22:00,
2013-04-22 15:33:00,31.0,-99.9,-100.00,North,-999,-999.0,-999.0,-999,0.00,,,0.10,,2013-04-22 21:33:00,
2013-04-22 15:43:00,31.0,-99.9,-100.00,North,-999,-999.0,-999.0,-999,0.00,,,0.10,,2013-04-22 21:43:00,
2013-04-22 16:22:00,29.0,-99.9,-100.00,North,-999,-999.0,-999.0,-999,0.00,,,0.06,,2013-04-22 22:22:00,
2013-04-22 16:42:00,29.0,-99.9,-100.00,North,-999,-999.0,-999.0,-999,0.00,,,0.06,,2013-04-22 22:42:00,
2013-04-22 17:22:00,31.0,-99.9,-100.00,North,-999,-999.0,-999.0,-999,0.00,,,0.02,,2013-04-22 23:22:00,
2013-04-22 17:33:00,31.0,-99.9,-100.00,North,-999,-999.0,-999.0,-999,0.00,,,0.02,,2013-04-22 23:33:00,
2013-04-22 17:43:00,31.0,-99.9,-100.00,North,-999,-999.0,-999.0,-999,0.00,,,0.02,,2013-04-22 23:43:00,
2013-04-22 18:22:00,35.0,-99.9,-100.00,North,-999,-999.0,-999.0,-999,0.00,,,0.04,,2013-04-23 00:22:00,
2013-04-22 18:32:00,35.0,-99.9,-100.00,North,-999,-999.0,-999.0,-999,0.00,,,0.04,,2013-04-23 00:32:00,
2013-04-22 18:42:00,35.0,-99.9,-100.00,North,-999,-999.0,-999.0,-999,0.00,,,0.04,,2013-04-23 00:42:00,
2013-04-22 19:22:00,34.0,-99.9,-100.00,North,-999,-999.0,-999.0,-999,0.00,,,0.02,,2013-04-23 01:22:00,
2013-04-22 19:32:00,34.0,-99.9,-100.00,North,-999,-999.0,-999.0,-999,0.00,,,0.02,,2013-04-23 01:32:00,
2013-04-22 19:42:00,34.0,-99.9,-100.00,North,-999,-999.0,-999.0,-999,0.00,,,0.02,,2013-04-23 01:42:00,
2013-04-22 20:22:00,32.0,-99.9,-100.00,North,-999,-999.0,-999.0,-999,0.00,,,0.00,,2013-04-23 02:22:00,
2013-04-22 20:33:00,32.0,-99.9,-100.00,North,-999,-999.0,-999.0,-999,0.00,,,0.00,,2013-04-23 02:33:00,
2013-04-22 20:42:00,32.0,-99.9,-100.00,North,-999,-999.0,-999.0,-999,0.00,,,0.00,,2013-04-23 02:42:00,
2013-04-22 21:22:00,28.0,-99.9,-100.00,North,-999,-999.0,-999.0,-999,0.00,,,0.00,,2013-04-23 03:22:00,
2013-04-22 21:33:00,28.0,-99.9,-100.00,North,-999,-999.0,-999.0,-999,0.00,,,0.00,,2013-04-23 03:33:00,
2013-04-22 21:43:00,28.0,-99.9,-100.00,North,-999,-999.0,-999.0,-999,0.00,,,0.00,,2013-04-23 03:43:00,
2013-04-22 22:23:00,27.0,-99.9,-100.00,North,-999,-999.0,-999.0,-999,0.00,,,0.00,,2013-04-23 04:23:00,
2013-04-22 22:33:00,27.0,-99.9,-100.00,North,-999,-999.0,-999.0,-999,0.00,,,0.00,,2013-04-23 04:33:00,
2013-04-22 22:44:00,27.0,-99.9,-100.00,North,-999,-999.0,-999.0,-999,0.00,,,0.00,,2013-04-23 04:44:00,
2013-04-22 23:22:00,24.0,-99.9,-100.00,North,-999,-999.0,-999.0,-999,0.00,,,0.00,,2013-04-23 05:22:00,
2013-04-22 23:33:00,24.0,-99.9,-100.00,North,-999,-999.0,-999.0,-999,0.00,,,0.00,,2013-04-23 05:33:00,
2013-04-22 23:43:00,24.0,-99.9,-100.00,North,-999,-999.0,-999.0,-999,0.00,,,0.00,,2013-04-23 05:43:00,